KE8BSM Weather Reports


Display with metric or nautical units.
time (UTC)temp
F
wind
direction
speed
MPH
gust
MPH
rain 1hr
in
rain 24hr
in
rain mn
in
humidity
%
barometer
mb
20260901222917 82 0.0 0.0 0.00 0.00 0.00 81 1011.0
20260901222417 82 0.0 0.0 0.00 0.00 0.00 80 1010.9
20260901221917 82 132 0.0 1.0 0.00 0.00 0.00 80 1011.0
20260901221417 82 306 1.0 2.0 0.00 0.00 0.00 79 1011.2
20260901220917 82 79 0.0 1.0 0.00 0.00 0.00 79 1011.2
20260901220417 83 296 0.0 0.0 0.00 0.00 0.00 78 1011.3
20260901215917 83 236 2.0 4.0 0.00 0.00 0.00 77 1011.5
20260901215417 83 69 1.0 3.0 0.00 0.00 0.00 77 1011.5
20260901214938 84 161 1.0 1.0 0.00 0.00 0.00 77 1011.6
20260901214438 84 47 2.0 3.0 0.00 0.00 0.00 77 1011.6
20260901213918 84 36 2.0 5.0 0.00 0.00 0.00 77 1011.4
20260901213415 84 212 2.0 3.0 0.00 0.00 0.00 77 1011.4
20260901212918 84 135 2.0 4.0 0.00 0.00 0.00 76 1011.3
20260901212415 85 358 2.0 4.0 0.00 0.00 0.00 75 1011.3
20260901211915 85 233 2.0 6.0 0.00 0.00 0.00 74 1011.2
20260901211415 85 69 2.0 7.0 0.00 0.00 0.00 73 1011.2
20260901210915 86 235 1.0 5.0 0.00 0.00 0.00 72 1011.2
20260901210415 86 15 3.0 7.0 0.00 0.00 0.00 72 1011.1
20260901205916 86 51 3.0 5.0 0.00 0.00 0.00 72 1011.2
20260901205416 86 217 4.0 12.0 0.00 0.00 0.00 74 1011.2
20260901204916 86 42 4.0 6.0 0.00 0.00 0.00 75 1011.1
20260901204416 86 230 4.0 7.0 0.00 0.00 0.00 74 1011.0
20260901203916 86 229 1.0 3.0 0.00 0.00 0.00 74 1011.0
20260901203416 86 46 2.0 3.0 0.00 0.00 0.00 73 1011.0
20260901202936 86 81 4.0 12.0 0.00 0.00 0.00 74 1011.0
20260901202416 87 54 3.0 7.0 0.00 0.00 0.00 73 1011.0
20260901201916 87 228 7.0 13.0 0.00 0.00 0.00 74 1011.0
20260901201416 86 324 3.0 8.0 0.00 0.00 0.00 74 1011.0
20260901200916 87 107 2.0 6.0 0.00 0.00 0.00 73 1010.9
20260901200416 86 213 1.0 10.0 0.00 0.00 0.00 74 1010.9
20260901195917 86 222 3.0 7.0 0.00 0.00 0.00 74 1010.8
20260901195417 86 204 3.0 6.0 0.00 0.00 0.00 74 1010.7
20260901194937 86 162 5.0 14.0 0.00 0.00 0.00 74 1010.7
20260901194417 86 201 2.0 11.0 0.00 0.00 0.00 75 1010.8
20260901193917 86 47 2.0 3.0 0.00 0.00 0.00 76 1010.7
20260901193417 85 281 7.0 10.0 0.00 0.01 0.00 76 1010.7
20260901192917 85 44 5.0 8.0 0.00 0.01 0.00 76 1010.8
20260901192417 85 115 1.0 1.0 0.00 0.10 0.00 76 1010.7
20260901191917 85 41 3.0 8.0 0.00 0.14 0.00 76 1010.8
20260901191417 85 64 2.0 3.0 0.00 0.15 0.00 77 1010.8
20260901190917 85 28 5.0 9.0 0.00 0.17 0.00 76 1010.9
20260901190417 85 231 3.0 4.0 0.00 0.18 0.00 76 1010.9
20260901185917 84 11 3.0 6.0 0.00 0.20 0.00 78 1011.0
20260901185420 84 275 3.0 4.0 0.00 0.20 0.00 79 1011.1
20260901184920 84 17 2.0 6.0 0.00 0.20 0.00 78 1011.3
20260901184424 84 259 1.0 2.0 0.00 0.20 0.00 80 1011.3
20260901183923 83 316 2.0 3.0 0.00 0.20 0.00 80 1011.2
20260901183424 83 214 0.0 2.0 0.00 0.20 0.00 80 1011.3
20260901182944 83 261 0.0 1.0 0.00 0.23 0.00 80 1011.1
20260901182424 83 230 1.0 2.0 0.00 0.23 0.00 79 1011.0
20260901181924 83 332 1.0 2.0 0.00 0.23 0.00 79 1010.9
20260901181424 83 332 0.0 1.0 0.00 0.25 0.00 80 1010.8
20260901180924 83 94 2.0 3.0 0.00 0.28 0.00 79 1011.0
20260901180424 83 49 1.0 2.0 0.00 0.28 0.00 80 1011.1
20260901175924 83 288 2.0 2.0 0.00 0.28 0.00 79 1011.2
20260901175424 84 300 1.0 2.0 0.00 0.28 0.00 79 1011.5
20260901174924 84 89 1.0 1.0 0.00 0.28 0.00 80 1011.7
20260901174425 83 141 0.0 1.0 0.00 0.28 0.00 79 1011.7
20260901173925 83 121 2.0 2.0 0.00 0.28 0.00 80 1011.6
20260901173425 83 8 2.0 3.0 0.00 0.28 0.00 80 1011.6
20260901172945 83 188 1.0 2.0 0.00 0.28 0.00 80 1011.7
20260901172505 83 295 4.0 5.0 0.00 0.28 0.00 80 1011.6
20260901171925 83 56 0.0 0.0 0.00 0.28 0.00 80 1011.6
20260901171425 83 305 2.0 3.0 0.00 0.28 0.00 80 1011.5
20260901170945 83 243 1.0 3.0 0.00 0.28 0.00 80 1011.5
20260901170425 83 268 1.0 1.0 0.00 0.28 0.00 81 1011.5
20260901165925 83 256 1.0 2.0 0.00 0.28 0.00 81 1011.5
20260901165425 83 50 1.0 2.0 0.00 0.28 0.00 80 1011.4
20260901164925 83 31 1.0 2.0 0.00 0.28 0.00 81 1011.4
20260901164425 83 10 1.0 2.0 0.00 0.28 0.00 80 1011.4
20260901163926 83 0.0 0.0 0.00 0.28 0.00 80 1011.3
20260901163446 82 42 1.0 2.0 0.00 0.28 0.00 80 1011.3
20260901162946 82 326 0.0 0.0 0.00 0.28 0.00 81 1011.3
20260901162446 82 0.0 0.0 0.00 0.28 0.00 81 1011.3
20260901161926 82 179 0.0 0.0 0.00 0.28 0.00 81 1011.4
20260901161426 82 310 2.0 2.0 0.00 0.28 0.00 81 1011.4
20260901160926 81 356 1.0 1.0 0.00 0.28 0.00 82 1011.5
20260901160426 81 122 1.0 2.0 0.00 0.28 0.00 81 1011.5
20260901155926 81 99 1.0 2.0 0.00 0.28 0.00 81 1011.6
20260901155427 81 305 2.0 3.0 0.00 0.28 0.00 82 1011.6
20260901154926 81 273 2.0 3.0 0.00 0.28 0.00 83 1011.6
20260901154426 81 7 2.0 3.0 0.00 0.28 0.00 83 1011.7
20260901153927 80 262 1.0 1.0 0.00 0.28 0.00 83 1011.7
20260901153426 80 6 1.0 1.0 0.00 0.28 0.00 83 1011.7
20260901152927 80 270 2.0 2.0 0.00 0.28 0.00 84 1011.6
20260901152427 80 199 1.0 2.0 0.00 0.28 0.00 84 1011.5
20260901151947 80 4 1.0 2.0 0.00 0.28 0.00 84 1011.6
20260901151446 80 218 1.0 3.0 0.00 0.28 0.00 84 1011.6
20260901150927 80 98 1.0 2.0 0.00 0.28 0.00 84 1011.6
20260901150427 80 0.0 0.0 0.00 0.29 0.00 85 1011.6
20260901145927 80 359 1.0 1.0 0.00 0.29 0.00 85 1011.5
20260901145507 79 121 0.0 0.0 0.00 0.29 0.00 85 1011.6
20260901144927 79 47 1.0 1.0 0.00 0.29 0.00 85 1011.6
20260901144428 79 42 1.0 2.0 0.00 0.29 0.00 86 1011.6
20260901143927 79 62 1.0 2.0 0.00 0.29 0.00 87 1011.6
20260901143447 78 51 0.0 1.0 0.00 0.29 0.00 86 1011.7
20260901142927 78 68 2.0 2.0 0.00 0.30 0.00 87 1011.7
20260901142427 78 22 1.0 2.0 0.00 0.32 0.00 87 1011.8
20260901141928 78 13 1.0 2.0 0.00 0.32 0.00 88 1011.8
20260901141427 77 261 0.0 1.0 0.00 0.33 0.00 89 1011.7
20260901140928 77 0.0 0.0 0.00 0.33 0.00 89 1011.7
20260901140429 77 0.0 0.0 0.00 0.33 0.00 89 1011.7
20260901135928 77 0.0 0.0 0.00 0.33 0.00 89 1011.6
20260901135428 76 333 0.0 1.0 0.00 0.33 0.00 89 1011.6
20260901134928 76 0.0 0.0 0.00 0.33 0.00 90 1011.6
20260901134429 76 269 0.0 0.0 0.00 0.33 0.00 90 1011.6
20260901133928 75 261 0.0 1.0 0.00 0.33 0.00 91 1011.6
20260901133509 75 287 1.0 2.0 0.00 0.33 0.00 91 1011.6
20260901132949 75 297 0.0 1.0 0.00 0.33 0.00 91 1011.6
20260901132428 74 282 0.0 1.0 0.00 0.33 0.00 92 1011.7
20260901131928 74 0.0 0.0 0.00 0.33 0.00 93 1011.7
20260901131428 74 0.0 0.0 0.00 0.33 0.00 93 1011.6
20260901130929 73 0.0 0.0 0.00 0.33 0.00 94 1011.6
20260901130429 73 59 0.0 0.0 0.00 0.33 0.00 95 1011.6
20260901125949 73 0.0 0.0 0.00 0.33 0.00 95 1011.6
20260901125429 73 0.0 0.0 0.00 0.33 0.00 95 1011.6
20260901124929 73 0.0 0.0 0.00 0.33 0.00 95 1011.6
20260901124509 72 0.0 0.0 0.00 0.33 0.00 95 1011.6
20260901123949 72 0.0 0.0 0.00 0.33 0.00 96 1011.6
20260901123429 72 195 0.0 1.0 0.00 0.33 0.00 96 1011.6
20260901122929 72 0.0 0.0 0.00 0.33 0.00 97 1011.5
20260901122429 72 0.0 0.0 0.00 0.33 0.00 97 1011.5
20260901121950 72 0.0 0.0 0.00 0.33 0.00 98 1011.5
20260901121430 71 0.0 0.0 0.00 0.33 0.00 98 1011.4
20260901120930 71 0.0 0.0 0.00 0.33 0.00 98 1011.3
20260901120430 71 0.0 0.0 0.00 0.33 0.00 98 1011.2
20260901115930 71 0.0 0.0 0.00 0.33 0.00 98 1011.2
20260901115430 71 0.0 0.0 0.00 0.33 0.00 98 1011.1
20260901114930 71 0.0 0.0 0.00 0.33 0.00 98 1011.1
20260901114430 71 0.0 0.0 0.00 0.33 0.00 98 1011.1
20260901113915 71 0.0 0.0 0.00 0.33 0.00 98 1011.0
20260901113416 71 0.0 0.0 0.00 0.33 0.00 98 1010.9
20260901112935 71 0.0 0.0 0.00 0.33 0.00 98 1010.8
20260901112415 71 0.0 0.0 0.00 0.33 0.00 98 1010.7
20260901111935 71 0.0 0.0 0.00 0.33 0.00 99 1010.8
20260901111415 71 0.0 0.0 0.00 0.33 0.00 99 1010.8
20260901110916 71 0.0 0.0 0.00 0.33 0.00 99 1010.8
20260901110416 71 0.0 0.0 0.00 0.33 0.00 99 1010.8
20260901105916 71 0.0 0.0 0.00 0.33 0.00 99 1010.8
20260901105416 71 0.0 0.0 0.00 0.33 0.00 99 1010.8
20260901104917 71 0.0 0.0 0.00 0.33 0.00 99 1010.8
20260901104416 71 0.0 0.0 0.00 0.33 0.00 99 1010.8
20260901103916 71 0.0 0.0 0.00 0.33 0.00 99 1010.8
20260901103416 71 0.0 0.0 0.00 0.33 0.00 99 1010.7
20260901102916 71 0.0 0.0 0.00 0.33 0.00 99 1010.6
20260901102416 71 0.0 0.0 0.00 0.33 0.00 99 1010.6
20260901101936 71 0.0 0.0 0.00 0.33 0.00 99 1010.7
20260901101456 71 222 1.0 1.0 0.00 0.33 0.00 99 1010.8
20260901100916 71 0.0 0.0 0.00 0.33 0.00 99 1010.8
20260901100417 71 0.0 0.0 0.00 0.33 0.00 99 1010.7
20260901095917 71 0.0 0.0 0.00 0.33 0.00 99 1010.7
20260901095417 71 0.0 0.0 0.00 0.33 0.00 99 1010.7
20260901094917 71 233 1.0 1.0 0.00 0.33 0.00 99 1010.8
20260901094417 71 0.0 0.0 0.00 0.33 0.00 99 1010.7
20260901093917 71 0.0 0.0 0.00 0.33 0.00 99 1010.6
20260901093417 71 0.0 0.0 0.00 0.33 0.00 99 1010.6
20260901092917 71 0.0 0.0 0.00 0.33 0.00 99 1010.6
20260901092417 72 0.0 0.0 0.00 0.33 0.00 99 1010.7
20260901091917 72 0.0 0.0 0.00 0.33 0.00 99 1010.7
20260901091417 72 0.0 0.0 0.00 0.33 0.00 99 1010.7
20260901090917 72 0.0 0.0 0.00 0.33 0.00 99 1010.6
20260901090418 72 0.0 0.0 0.00 0.33 0.00 99 1010.5
20260901085918 72 0.0 0.0 0.00 0.33 0.00 99 1010.5
20260901085418 72 0.0 0.0 0.00 0.33 0.00 99 1010.6
20260901084938 72 0.0 0.0 0.00 0.33 0.00 99 1010.5
20260901084418 72 0.0 0.0 0.00 0.33 0.00 99 1010.5
20260901083938 72 0.0 0.0 0.00 0.33 0.00 99 1010.5
20260901083418 72 0.0 0.0 0.00 0.33 0.00 99 1010.5
20260901082918 72 0.0 0.0 0.00 0.33 0.00 99 1010.5
20260901082438 72 0.0 0.0 0.00 0.33 0.00 99 1010.5
20260901081938 72 0.0 0.0 0.00 0.33 0.00 99 1010.5
20260901081418 72 0.0 0.0 0.00 0.33 0.00 99 1010.6
20260901080918 72 0.0 0.0 0.00 0.33 0.00 98 1010.5
20260901080418 72 0.0 0.0 0.00 0.33 0.00 99 1010.5
20260901075919 72 0.0 0.0 0.00 0.33 0.00 99 1010.5
20260901075419 72 229 1.0 1.0 0.00 0.33 0.00 98 1010.5
20260901074919 72 0.0 0.0 0.00 0.33 0.00 98 1010.5
20260901074419 72 0.0 0.0 0.00 0.33 0.00 98 1010.5
20260901073919 72 0.0 0.0 0.00 0.33 0.00 98 1010.5
20260901073419 72 0.0 0.0 0.00 0.33 0.00 98 1010.5
20260901072919 72 219 0.0 0.0 0.00 0.33 0.00 98 1010.5
20260901072439 72 0.0 0.0 0.00 0.33 0.00 98 1010.5
20260901071919 72 0.0 0.0 0.00 0.33 0.00 98 1010.5
20260901071419 72 0.0 0.0 0.00 0.33 0.00 98 1010.5
20260901070919 72 0.0 0.0 0.00 0.33 0.00 98 1010.5
20260901070439 72 0.0 0.0 0.00 0.33 0.00 98 1010.5
20260901065920 72 0.0 0.0 0.00 0.33 0.00 98 1010.5
20260901065420 72 0.0 0.0 0.00 0.33 0.00 98 1010.5
20260901064920 72 0.0 0.0 0.00 0.33 0.00 98 1010.5
20260901064420 72 0.0 0.0 0.00 0.33 0.00 98 1010.5
20260901063920 72 0.0 0.0 0.00 0.33 0.00 97 1010.5
20260901063420 72 0.0 0.0 0.00 0.33 0.00 97 1010.5
20260901062920 72 0.0 0.0 0.00 0.33 0.00 97 1010.6
20260901062420 72 0.0 0.0 0.00 0.33 0.00 97 1010.6
20260901061920 72 0.0 0.0 0.00 0.33 0.00 97 1010.6
20260901061420 72 0.0 0.0 0.00 0.33 0.00 97 1010.6
20260901060920 72 0.0 0.0 0.00 0.33 0.00 97 1010.7
20260901060421 72 0.0 0.0 0.00 0.33 0.00 97 1010.7
20260901055941 72 0.0 0.0 0.00 0.33 0.00 97 1010.7
20260901055421 72 0.0 0.0 0.00 0.33 0.00 97 1010.7
20260901054921 72 0.0 0.0 0.00 0.33 0.00 97 1010.7
20260901054421 72 0.0 0.0 0.00 0.33 0.00 96 1010.7
20260901053921 72 0.0 0.0 0.00 0.33 0.00 96 1010.8
20260901053421 72 0.0 0.0 0.00 0.33 0.00 96 1010.8
20260901052921 72 0.0 0.0 0.00 0.33 0.00 96 1010.8
20260901052421 72 0.0 0.0 0.00 0.33 0.00 96 1010.8
20260901051921 72 0.0 0.0 0.00 0.33 0.00 96 1010.8
20260901051421 72 0.0 0.0 0.00 0.33 0.00 96 1010.8
20260901050922 72 0.0 0.0 0.00 0.33 0.00 96 1010.8
20260901050421 72 0.0 0.0 0.00 0.33 0.00 96 1010.7
20260901045942 72 0.0 0.0 0.00 0.33 0.00 96 1010.8
20260901045416 72 0.0 0.0 0.00 0.33 0.00 96 1010.8
20260901044916 72 0.0 0.0 0.00 0.33 0.00 97 1010.9
20260901044519 72 0.0 0.0 0.00 0.33 0.00 96 1010.8
20260901043916 72 0.0 0.0 0.00 0.33 0.00 96 1010.8
20260901043416 72 0.0 0.0 0.00 0.33 0.00 96 1010.8
20260901042916 72 0.0 0.0 0.00 0.33 0.00 95 1010.7
20260901042416 72 0.0 0.0 0.00 0.33 0.00 95 1010.7
20260901041916 72 0.0 0.0 0.00 0.33 0.00 95 1010.8
20260901041416 72 0.0 0.0 0.00 0.33 0.00 94 1010.9
20260901040917 73 0.0 0.0 0.00 0.33 0.00 94 1010.9
20260901040417 73 0.0 0.0 0.00 0.33 0.00 94 1010.8
20260901035917 73 0.0 0.0 0.00 0.33 0.33 94 1010.8
20260901035417 73 0.0 0.0 0.00 0.33 0.33 93 1010.8
20260901034917 73 0.0 0.0 0.00 0.33 0.33 93 1010.8
20260901034417 73 0.0 0.0 0.00 0.33 0.33 93 1010.9
20260901033917 73 0.0 0.0 0.00 0.33 0.33 92 1011.1
20260901033418 73 0.0 0.0 0.00 0.33 0.33 92 1011.1
20260901032917 73 0.0 0.0 0.00 0.33 0.33 92 1011.1
20260901032417 74 0.0 0.0 0.00 0.33 0.33 92 1011.0
20260901031917 74 124 0.0 1.0 0.00 0.33 0.33 92 1010.9
20260901031417 74 0.0 0.0 0.00 0.33 0.33 91 1010.9
20260901030918 74 0.0 0.0 0.00 0.33 0.33 92 1011.0
20260901030418 74 0.0 0.0 0.00 0.33 0.33 91 1011.0
20260901025918 74 0.0 0.0 0.00 0.33 0.33 91 1010.9
20260901025418 74 0.0 0.0 0.00 0.33 0.33 90 1010.8
20260901024938 74 0.0 0.0 0.00 0.33 0.33 90 1010.7
20260901024418 74 0.0 0.0 0.00 0.33 0.33 89 1010.6
20260901023918 75 0.0 0.0 0.00 0.33 0.33 89 1010.7
20260901023415 75 0.0 0.0 0.00 0.33 0.33 89 1010.6
20260901022915 75 0.0 0.0 0.00 0.33 0.33 88 1010.5
20260901022415 75 0.0 0.0 0.00 0.33 0.33 88 1010.4
20260901021915 75 0.0 0.0 0.00 0.33 0.33 88 1010.5
20260901021415 75 0.0 0.0 0.00 0.33 0.33 87 1010.7
20260901020935 75 0.0 0.0 0.00 0.33 0.33 87 1010.8
20260901020416 75 0.0 0.0 0.00 0.33 0.33 87 1010.8
20260901015916 75 0.0 0.0 0.00 0.33 0.33 87 1010.8
20260901015416 75 0.0 0.0 0.00 0.33 0.33 87 1010.7
20260901014916 75 0.0 0.0 0.00 0.33 0.33 87 1010.7
20260901014416 75 66 1.0 2.0 0.00 0.33 0.33 86 1010.7
20260901013916 75 143 1.0 2.0 0.00 0.33 0.33 87 1010.8
20260901013416 75 0.0 0.0 0.00 0.33 0.33 88 1010.9
20260901012916 75 0.0 0.0 0.00 0.33 0.33 86 1010.9
20260901012416 75 0.0 0.0 0.00 0.33 0.33 87 1010.8
20260901011916 75 0.0 0.0 0.00 0.33 0.33 86 1010.6
20260901011457 75 0.0 0.0 0.00 0.33 0.33 86 1010.8
20260901010936 75 0.0 0.0 0.00 0.33 0.33 86 1010.7
20260901010417 76 0.0 0.0 0.00 0.33 0.33 86 1010.6
20260901005917 76 0.0 0.0 0.00 0.33 0.33 86 1010.4
20260901005417 76 0.0 0.0 0.00 0.33 0.33 86 1010.6
20260901004917 76 0.0 0.0 0.00 0.33 0.33 86 1010.4
20260901004417 76 165 0.0 1.0 0.00 0.33 0.33 85 1010.7
20260901003917 76 0.0 0.0 0.00 0.33 0.33 85 1010.7
20260901003417 77 0.0 0.0 0.00 0.33 0.33 84 1010.6
20260901002917 77 0.0 0.0 0.00 0.33 0.33 83 1010.5
20260901002417 77 0.0 0.0 0.00 0.33 0.33 82 1010.6
20260901001917 78 0.0 0.0 0.00 0.33 0.33 81 1010.5
20260901001417 78 40 0.0 1.0 0.00 0.33 0.33 81 1010.5
20260901000918 78 353 0.0 1.0 0.00 0.33 0.33 81 1010.5
20260901000420 78 143 0.0 1.0 0.00 0.33 0.33 82 1010.5
20260831235918 77 0.0 0.0 0.00 0.33 0.33 84 1010.5
20260831235418 77 254 0.0 3.0 0.00 0.33 0.33 83 1010.5
20260831234918 77 1 0.0 1.0 0.00 0.33 0.33 83 1010.4
20260831234418 78 143 0.0 1.0 0.00 0.33 0.33 86 1010.3
20260831233936 78 0.0 0.0 0.00 0.33 0.33 85 1010.1
20260831233435 78 0.0 0.0 0.00 0.33 0.33 85 1010.0
20260831232918 78 0.0 0.0 0.00 0.33 0.33 85 1010.0
20260831232415 78 88 0.0 1.0 0.00 0.33 0.33 85 1010.0
20260831231915 78 146 0.0 1.0 0.00 0.33 0.33 85 1010.1
20260831231415 78 130 1.0 2.0 0.00 0.33 0.33 84 1010.1
20260831230915 78 142 0.0 2.0 0.00 0.33 0.33 85 1010.2
20260831230415 78 131 0.0 1.0 0.00 0.33 0.33 85 1010.2
20260831225915 78 135 0.0 1.0 0.00 0.33 0.33 86 1010.3
20260831225416 77 29 0.0 2.0 0.00 0.33 0.33 85 1010.3
20260831224916 77 299 0.0 2.0 0.00 0.33 0.33 88 1010.2
20260831224416 77 0.0 0.0 0.00 0.33 0.33 87 1010.1
20260831223916 77 0.0 0.0 0.00 0.33 0.33 88 1010.0
20260831223416 77 0.0 0.0 0.00 0.33 0.33 86 1009.8